TA2DMX-13 Weather Reports


Display with metric or nautical units.
time (UTC)temp
F
wind
direction
speed
MPH
gust
MPH
rain 1hr
in
rain 24hr
in
rain mn
in
humidity
%
barometer
mb
20260508072709 89 270 0.0 0.0 0.00 0.00 0.00 22 1011.8
20260508070704 89 270 0.0 0.0 0.00 0.00 0.00 21 1011.7
20260508064042 96 315 0.0 0.0 0.00 0.00 0.00 19 1011.5
20260508062440 92 270 0.0 0.0 0.00 0.00 0.00 22 1011.7
20260508060837 91 270 0.0 0.0 0.00 0.00 0.00 22 1011.7
20260508055245 79 270 0.0 0.0 0.00 0.00 0.00 33 1011.9
20260508053008 83 225 0.0 0.0 0.00 0.00 0.00 30 1011.8
20260508051019 70 270 0.0 0.0 0.00 0.00 0.00 47 1012.0
20260508045411 68 270 0.0 0.0 0.00 0.00 0.00 50 1012.1
20260508043808 67 270 0.0 0.0 0.00 0.00 0.00 51 1012.1
20260508042204 66 315 0.0 0.0 0.00 0.00 0.00 54 1012.1
20260508040031 65 270 0.0 0.0 0.00 0.00 0.00 57 1011.8
20260508034211 64 270 0.0 0.0 0.00 0.00 0.00 58 1011.9
20260508032309 63 270 0.0 0.0 0.00 0.00 0.00 58 1012.0
20260508030705 63 225 0.0 0.0 0.00 0.00 0.00 60 1011.8
20260508023009 62 0 0.0 0.0 0.00 0.00 0.00 58 1011.7
20260508020014 62 0 0.0 0.0 0.00 0.00 0.00 58 1011.7
20260508013006 61 270 0.0 0.0 0.00 0.00 0.00 62 1011.7
20260508011408 61 270 0.0 0.0 0.00 0.00 0.00 62 1011.8
20260508005804 62 270 0.0 0.0 0.00 0.00 0.00 62 1011.8
20260508003008 62 270 0.0 0.0 0.00 0.00 0.00 63 1011.9
20260508000513 62 0 0.0 0.0 0.00 0.00 0.00 63 1011.9
20260507234910 62 270 0.0 0.0 0.00 0.00 0.00 62 1012.0
20260507233308 63 315 0.0 0.0 0.00 0.00 0.00 61 1012.1
20260507231704 63 270 0.0 0.0 0.00 0.00 0.00 61 1012.1
20260507230023 63 225 0.0 0.0 0.00 0.00 0.00 60 1012.2
20260507224033 63 0 0.0 0.0 0.00 0.00 0.00 57 1012.2
20260507220927 64 270 0.0 0.0 0.00 0.00 0.00 53 1012.2
20260507215324 64 0 0.0 0.0 0.00 0.00 0.00 54 1012.2
20260507213722 64 225 0.0 0.0 0.00 0.00 0.00 52 1012.3
20260507212119 65 270 0.0 0.0 0.00 0.00 0.00 50 1012.3
20260507210516 65 270 0.0 0.0 0.00 0.00 0.00 47 1012.2
20260507204913 65 225 0.0 0.0 0.00 0.00 0.00 46 1012.1
20260507201806 66 225 0.0 0.0 0.00 0.00 0.00 44 1012.0
20260507200204 66 270 0.0 0.0 0.00 0.00 0.00 44 1011.8
20260507194520 66 270 0.0 0.0 0.00 0.00 0.00 42 1011.8
20260507193018 67 270 0.0 0.0 0.00 0.00 0.00 42 1011.8
20260507191515 67 270 0.0 0.0 0.00 0.00 0.00 41 1011.7
20260507190012 67 270 0.0 0.0 0.00 0.00 0.00 41 1011.5
20260507184509 68 225 0.0 0.0 0.00 0.00 0.00 40 1011.4
20260507183007 68 225 0.0 0.0 0.00 0.00 0.00 40 1011.2
20260507181504 68 315 0.0 0.0 0.00 0.00 0.00 38 1011.1
20260507175940 69 270 0.0 0.0 0.00 0.00 0.00 37 1011.0
20260507174407 69 270 0.0 0.0 0.00 0.00 0.00 36 1010.9
20260507171905 70 315 0.0 0.0 0.00 0.00 0.00 35 1010.7
20260507170300 70 270 0.0 0.0 0.00 0.00 0.00 33 1010.6
20260507163911 72 270 0.0 0.0 0.00 0.00 0.00 31 1010.5
20260507162308 73 270 0.0 0.0 0.00 0.00 0.00 30 1010.4
20260507160704 73 270 0.0 0.0 0.00 0.00 0.00 30 1010.5
20260507154516 74 270 0.0 0.0 0.00 0.00 0.00 29 1010.6
20260507151504 75 225 0.0 0.0 0.00 0.00 0.00 27 1010.8
20260507145928 76 225 0.0 0.0 0.00 0.00 0.00 26 1010.8
20260507144324 76 270 0.0 0.0 0.00 0.00 0.00 27 1011.0
20260507142721 77 270 0.0 0.0 0.00 0.00 0.00 25 1011.0
20260507141119 77 315 0.0 0.0 0.00 0.00 0.00 25 1011.1
20260507135515 78 270 0.0 0.0 0.00 0.00 0.00 25 1011.1
20260507133912 77 0 0.0 0.0 0.00 0.00 0.00 25 1011.0
20260507132308 78 225 0.0 0.0 0.00 0.00 0.00 25 1011.1
20260507124204 77 315 0.0 0.0 0.00 0.00 0.00 26 1011.3
20260507113024 77 315 0.0 0.0 0.00 0.00 0.00 27 1011.8
20260507110019 86 270 0.0 0.0 0.00 0.00 0.00 20 1011.5
20260507103006 102 270 0.0 0.0 0.00 0.00 0.00 13 1011.3
20260507101204 100 0 0.0 0.0 0.00 0.00 0.00 13 1011.4
20260507092204 100 315 0.0 0.0 0.00 0.00 0.00 13 1011.7
20260507085013 103 270 0.0 0.0 0.00 0.00 0.00 11 1011.8
20260507083411 101 270 0.0 0.0 0.00 0.00 0.00 13 1011.8
20260507081808 85 270 0.0 0.0 0.00 0.00 0.00 23 1012.3
20260507080203 78 270 0.0 0.0 0.00 0.00 0.00 27 1012.3